Location: Rounton
(54.4000°N, 1.3500°W)
Time: 18:39:30
(UTC+01:00)

S-56A Canister/Altair - Pass Details

Date: 16 September 2024
Orbit: 636 x 2487 km, 38.9° (Epoch: 06 October)

Event Time Altitude Azimuth Distance (km) Brightness Sun altitude
Rises 19:55:18 0° 220° (SW) 3,292 11.2 -6.2°
Reaches altitude 10° 19:58:11 10° 202° (SSW) 2,565 10.3 -6.6°
Maximum altitude 20:02:23 19° 158° (SSE) 2,287 9.6 -7.2°
Drops below altitude 10° 20:07:40 10° 117° (ESE) 3,351 10.1 -7.9°
Enters shadow 20:08:14 - 114° (ESE) 3,510 10.2 -8.0°
Sets 20:12:11 0° 102° (ESE) 4,712 - -8.6°
